Regional Weather Roundup
Issued by NWS

Home | Current Version | Previous Version | Graphics & Text | Print | Product List | Glossary On
Versions: 1 2 3 4 5 6 7 8 9 10 11 12 13 14 15 16 17 18 19 20 21 22 23 24 25 26 27 28 29 30 31 32 33 34 35 36 37 38 39 40 41 42 43 44 45 46 47 48 49 50
000
ASUS45 KSLC 060410
RWRUT

UTAH REGIONAL WEATHER ROUNDUP
NATIONAL WEATHER SERVICE SALT LAKE CITY UT
900 PM MST MON DEC 05 2016

UTZ001>011-023>025-060500-

NORTHERN UTAH

CITY           SKY/WX    TMP DP  RH WIND       PRES   REMARKS
BRIGHAM CITY     N/A     23   8  52 CALM      30.02S
HILL AFB       PTCLDY    19   0  43 E12       29.99S WCI   6
LOGAN          CLEAR    N/A N/A N/A N5        30.02S
OGDEN          PTCLDY    21   3  45 S9        30.00S WCI  11
SALT LAKE CITY MOCLDY    29  10  45 CALM      30.01F
TOOELE VALLEY  CLOUDY    27  19  74 S3        30.01S
WENDOVER       PTCLDY    19   1  45 CALM      30.00F
HEBER CITY     CLOUDY    21   1  42 N5        29.96S WCI  15
WEST JORDAN    CLOUDY    27  11  53 E3        30.00F

$$

UTZ011>015-024>027-060500-

CENTRAL/NORTHEAST UTAH

CITY           SKY/WX    TMP DP  RH WIND       PRES   REMARKS
PROVO AIRPORT  CLOUDY    28  14  55 N5        30.01F WCI  23
MOAB/CANYONLAN CLEAR     32   1  26 E21       29.92S WCI  20
DELTA          CLEAR     21   5  49 NE5       29.96F WCI  15
PRICE          CLOUDY    25   4  40 N15       29.90S WCI  13
RICHFIELD      PTCLDY    21  14  73 E1        29.98
ROOSEVELT      CLOUDY    21  -8  27 NW6       30.03R WCI  14
VERNAL         CLEAR     18  -6  34 NE6       30.01R WCI  10

$$

UTZ013>016-019>022-027-060500-

SOUTHERN UTAH

CITY           SKY/WX    TMP DP  RH WIND       PRES   REMARKS
BRYCE CANYON   MOCLDY    10   5  80 SW5       29.91S WCI   2
CEDAR CITY     MOCLDY    25  12  58 CALM      29.91S
MILFORD        PTCLDY    22   6  50 CALM      29.94F
ST GEORGE      MOCLDY    46  19  34 W3        29.91S
HANKSVILLE     CLEAR     32   9  37 NW5       29.96R WCI  27
KANAB          CLOUDY    34  19  55 CALM      29.95
BLANDING       MOCLDY    28  17  62 NE8       29.95R WCI  20

$$

REGIONAL REPORTS     COLORADO/ARIZONA

CITY           SKY/WX    TMP DP  RH WIND       PRES   REMARKS
CRAIG, CO      CLOUDY     9  -3  58 CALM      29.98R
GRAND JUNCTION CLEAR     25   6  44 N7        29.97R WCI  17
RIFLE, CO      CLOUDY    26   1  34 NW13      29.97R WCI  15
MONTROSE, CO   CLEAR     26  10  50 NE8       29.96R WCI  18
CORTEZ, CO     CLOUDY    28  21  75 NE6       29.89R WCI  22
COLORADO CITY    N/A     34  23  64 CALM      29.94S
PAGE, AZ       CLOUDY    46  13  26 CALM      29.87R
GRAND CANYON   CLOUDY    29  22  75 CALM      29.96S
KINGMAN, AZ    CLOUDY    44  16  32 CALM      29.92S
FLAGSTAFF, AZ  CLOUDY    29  18  63 CALM      29.99R

$$

REGIONAL REPORTS    NEVADA/IDAHO/WYOMING

CITY           SKY/WX    TMP DP  RH WIND       PRES   REMARKS
LAS VEGAS, NV  CLOUDY    53  19  26 CALM      29.87S
ELY, NY        CLEAR     15  10  80 S5        29.91R WCI   8
ELKO, NV       PTCLDY    23  12  62 E5        29.93S WCI  17
POCATELLO, ID  CLEAR     12   3  67 CALM      30.02S
BURLEY, ID     CLEAR     13   8  81 S5        30.01S WCI   5
FORT BRIDGER,    N/A     12 -11  35 W6        29.96S WCI   2
EVANSTON, WY   CLOUDY     5 -15  39 SE8       29.92S WCI  -8
ROCK SPRINGS,  CLOUDY     7  -6  55 CALM      29.94R

$$



USA.gov is the U.S. government's official web portal to all federal, state and local government web resources and services.